• Processing (Info)

  • MPEC 2013-V73 : 2013 VG13

    The following Minor Planet Electronic Circular may be linked-to from your own Web pages, but must not otherwise be redistributed electronically.

    A form allowing access to any MPEC is at the bottom of this page.


    Read MPEC 2013-V72 Read MPEC 2013-V74


    M.P.E.C. 2013-V73                                Issued 2013 Nov. 12, 12:12 UT
    
         The Minor Planet Electronic Circulars contain information on unusual
             minor planets and routine data on comets.  They are published
       on behalf of Commission 20 of the International Astronomical Union by the
              Minor Planet Center, Smithsonian Astrophysical Observatory,
                              Cambridge, MA 02138, U.S.A.
    
                 Prepared using the Tamkin Foundation Computer Network
    
                                  MPC@CFA.HARVARD.EDU
                URL https://www.minorplanetcenter.net/    ISSN 1523-6714
    
                                       2013 VG13
    
    Observations:
         K13V13G* C2013 11 09.42230 05 07 05.34 -15 06 09.3                qEV073G96
         K13V13G  C2013 11 09.42306 05 07 05.27 -15 06 11.8          20.2 VqEV073G96
         K13V13G  C2013 11 09.42800 05 07 05.14 -15 06 28.9          20.9 VqEV073G96
         K13V13G  C2013 11 09.42878 05 07 05.11 -15 06 30.9          20.2 VqEV073G96
         K13V13G  C2013 11 09.43559 05 07 04.83 -15 06 54.3                qEV073G96
         K13V13G  C2013 11 09.44131 05 07 04.64 -15 07 14.2          20.7 VqEV073G96
         K13V13G  C2013 11 09.44209 05 07 04.63 -15 07 16.5          20.6 VqEV073G96
         K13V13G KC2013 11 10.30124305 06 44.16 -15 56 46.6          20.8 VuEV073H21
         K13V13G KC2013 11 10.30597605 06 43.97 -15 57 03.4          20.6 VuEV073H21
         K13V13G KC2013 11 10.31094505 06 43.74 -15 57 21.2                uEV073H21
         K13V13G  C2013 11 10.34525 05 06 43.22 -15 59 17.9          20.8 VqEV073G96
         K13V13G  C2013 11 10.34923 05 06 42.97 -15 59 32.2          19.8 VqEV073G96
         K13V13G  C2013 11 10.35151 05 06 42.89 -15 59 40.2          20.5 VqEV073G96
         K13V13G  C2013 11 10.35380 05 06 42.78 -15 59 48.3          20.3 VqEV073G96
         K13V13G  C2013 11 10.41641 05 06 40.24 -16 03 27.4          20.9 RoEV073926
         K13V13G  C2013 11 10.42587 05 06 39.84 -16 04 00.6          20.8 RoEV073926
         K13V13G  C2013 11 10.43532 05 06 39.48 -16 04 33.7          20.7 RoEV073926
         K13V13G KC2013 11 11.35391 05 06 12.96 -16 59 01.6          19.9 RoEV073291
         K13V13G KC2013 11 11.35499 05 06 12.91 -16 59 05.6          20.0 RoEV073291
         K13V13G KC2013 11 11.35608 05 06 12.86 -16 59 09.2                oEV073291
         K13V13G KC2013 11 12.34082 05 05 38.70 -17 59 09.6          20.0 RoEV073291
         K13V13G KC2013 11 12.34201 05 05 38.63 -17 59 14.0          19.9 RoEV073291
         K13V13G KC2013 11 12.34321 05 05 38.56 -17 59 18.4          20.1 RoEV073291
         K13V13G  C2013 11 12.40040 05 05 35.58 -18 02 51.1          20.3 VqEV073G96
         K13V13G  C2013 11 12.40183 05 05 35.50 -18 02 56.3          20.7 VqEV073G96
         K13V13G  C2013 11 12.40327 05 05 35.40 -18 03 01.9          19.8 VqEV073G96
         K13V13G  C2013 11 12.40471 05 05 35.36 -18 03 07.2          20.2 VqEV073G96
    
    Observer details:
    291 LPL/Spacewatch II.  Observers T. H. Bressi, R. A. Mastaler.  1.8-m f/2.7
        reflector + CCD.
    926 Tenagra II Observatory.  Observers M. Schwartz, P. R. Holvorcem.  0.81-m
        f/7 Ritchey-Chretien + CCD.
    G96 Mt. Lemmon Survey.  Observers A. Boattini, J. A. Johnson.  Measurers
        A. Boattini, E. J. Christensen, A. R. Gibbs, A. D. Grauer, R. E. Hill,
        J. A. Johnson, R. A. Kowalski, S. M. Larson, F. C. Shelly.  1.5-m
        reflector + CCD.
    H21 Astronomical Research Observatory, Westfield.  Observer R. Holmes.
        Measurers T. Linder, S. Foglia, L. Buzzi, T. Vorobjov.  0.61-m f/4.5
        astrograph + CCD.
    
    Orbital elements:
    2013 VG13                                                Earth MOID = 0.0980 AU
    Epoch 2013 Nov. 4.0 TT = JDT 2456600.5                  MPC
    M 261.30064              (2000.0)            P               Q
    n   0.92796813     Peri.   25.34718     -0.99821845     +0.02515919
    a   1.0409919      Node   155.90798     -0.03950343     -0.95822859
    e   0.3478582      Incl.    7.61609     +0.04471460     -0.28489470
    P   1.06           H   21.8           G   0.15           U   9
    Residuals in seconds of arc
    131109 G96  0.2+  0.0     131110 H21  0.5+  0.1-    131111 291  0.3-  0.1-
    131109 G96  0.5-  0.1+    131110 G96  0.8+  0.3+    131111 291  0.3-  0.2+
    131109 G96  0.2+  0.3-    131110 G96  0.5-  0.0     131112 291  0.2+  0.0
    131109 G96  0.2+  0.4+    131110 G96  0.3-  0.0     131112 291  0.1+  0.0
    131109 G96  0.4-  0.1+    131110 G96  0.5-  0.1-    131112 291  0.0   0.1+
    131109 G96  0.2-  0.4-    131110 926  0.2-  0.2-    131112 G96  0.2+  0.0
    131109 G96  0.0   0.0     131110 926  0.4-  0.3-    131112 G96  0.1+  0.1+
    131110 H21  1.1+  0.5+    131110 926  0.1-  0.4-    131112 G96  0.3-  0.2-
    131110 H21  1.0+  0.3+    131111 291  0.3-  0.0     131112 G96  0.2+  0.1-
    
    Ephemeris:
    2013 VG13                a,e,i = 1.04, 0.35, 8                   q = 0.6789
    Date    TT    R. A. (2000) Decl.     Delta      r     Elong.  Phase     V
    2013 10 13    04 55 10.7 +02 39 02   0.4303  1.2905   124.4    39.7    22.1
    ...
    2013 10 28    05 06 30.1 -05 14 34   0.3217  1.2333   132.3    36.6    21.3
    ...
    2013 11 05    05 08 02.9 -11 09 58   0.2715  1.1982   134.7    36.0    20.8
    ...
    2013 11 11    05 06 23.7 -16 37 22   0.2381  1.1698   134.7    37.0    20.5
    2013 11 12    05 05 50.6 -17 37 41   0.2329  1.1649   134.4    37.4    20.5
    2013 11 13    05 05 12.3 -18 39 45   0.2279  1.1599   134.2    37.7    20.4
    ...
    2013 11 19    04 59 16.7 -25 31 06   0.1999  1.1293   130.9    41.4    20.2
    ...
    2013 11 27    04 43 47.5 -36 31 26   0.1696  1.0860   121.9    50.5    20.0
    ...
    2013 12 12    03 16 06.4 -61 45 58   0.1364  0.9983    91.8    80.3    20.3
    
    A. U. Tomatic                (C) Copyright 2013 MPC           M.P.E.C. 2013-V73
    

    Read MPEC 2013-V72 Read MPEC 2013-V74


    MPEC number:

    Enter an MPEC number in one of the following forms:

    • 1997-B01 (the full form)
    • J97B01 (the packed version of the full form)
    • B01 (the abbreviated form)